EDT,Max TemperatureF,Mean TemperatureF,Min TemperatureF,Max Dew PointF,MeanDew PointF,Min DewpointF,Max Humidity, Mean Humidity, Min Humidity, Max Sea Level PressureIn, Mean Sea Level PressureIn, Min Sea Level PressureIn, Max VisibilityMiles, Mean VisibilityMiles, Min VisibilityMiles, Max Wind SpeedMPH, Mean Wind SpeedMPH, Max Gust SpeedMPH,PrecipitationIn, CloudCover, Events, WindDirDegrees
2013-4-1,57,46,36,46,40,12,97,77,36,29.81,29.64,29.56,10,8,1,23,15,39,0.38,5,Rain,242
2013-4-2,44,37,30,17,12,7,52,39,25,29.98,29.89,29.83,10,10,10,22,10,31,0.00,2,,276
2013-4-3,46,39,32,15,12,10,48,36,24,30.17,30.02,29.96,10,10,10,21,14,32,0.00,0,,280
2013-4-4,48,37,28,32,20,14,79,50,27,30.32,30.21,30.10,10,10,10,20,10,23,0.00,0,,253
2013-4-5,57,46,39,40,34,23,80,64,36,30.09,29.84,29.64,10,10,10,15,9,22,0.00,4,Rain,231
2013-4-6,48,40,30,26,14,2,79,41,16,30.34,30.17,29.88,10,10,10,16,8,29,0.00,0,,292
2013-4-7,51,38,26,42,31,18,89,70,30,30.34,30.21,30.06,10,10,9,21,7,32,0.00,2,,192
2013-4-8,68,57,46,45,41,38,90,68,33,30.12,30.04,29.98,10,9,7,15,11,21,0.00,1,,212
2013-4-9,77,62,46,52,45,39,100,76,29,30.10,29.95,29.85,10,7,0,16,9,28,0.08,4,Fog-Rain-Thunderstorm,173
2013-4-10,64,55,46,47,44,41,93,78,53,29.98,29.92,29.86,10,9,2,14,6,31,0.41,5,Rain,104
2013-4-11,53,49,45,46,41,32,100,78,54,30.12,29.96,29.81,10,8,1,13,5,,0.05,8,Rain,59
2013-4-12,45,42,39,39,35,30,93,80,58,30.13,29.97,29.72,10,6,2,22,11,31,0.58,8,Rain,72
2013-4-13,53,45,39,39,37,35,93,81,54,29.95,29.81,29.70,10,10,9,15,9,25,0.02,7,Rain,357
2013-4-14,57,45,35,39,32,24,100,67,34,30.21,30.01,29.94,10,8,0,17,4,26,0.00,5,Fog,279
2013-4-15,54,44,35,37,32,25,89,62,43,30.41,30.34,30.21,10,10,10,13,4,,0.00,0,,177
2013-4-16,57,45,33,48,41,32,97,76,55,30.41,30.31,30.13,10,10,2,22,8,29,0.01,3,Rain,195
2013-4-17,68,54,39,52,45,38,94,73,37,30.33,30.17,30.09,10,10,6,17,10,24,0.01,4,Rain,228
2013-4-18,60,46,33,47,37,31,96,70,37,30.41,30.33,30.17,10,9,2,17,5,24,0.00,3,,154
2013-4-19,69,61,53,61,58,48,94,89,73,30.16,29.94,29.75,10,8,1,29,15,38,0.06,8,Rain,199
2013-4-20,61,54,46,59,45,28,97,75,42,30.20,29.85,29.68,10,9,4,31,18,50,0.52,5,Rain,254
2013-4-21,53,43,34,29,24,19,82,49,32,30.67,30.50,30.23,10,10,10,14,6,17,0.00,0,,343
2013-4-22,54,40,28,34,30,26,96,66,39,30.71,30.64,30.55,10,10,10,17,7,24,0.00,3,,61
2013-4-23,45,42,39,42,39,32,93,89,70,30.54,30.31,30.03,10,6,2,14,10,30,0.08,8,Rain,28
2013-4-24,64,53,43,48,44,41,93,80,56,29.99,29.92,29.88,10,9,2,21,13,29,0.00,6,Rain,251
2013-4-25,64,53,39,51,42,30,96,72,28,30.25,30.05,29.90,10,8,2,16,10,34,0.03,5,Rain,239
2013-4-26,62,49,37,42,36,25,86,60,39,30.41,30.35,30.26,10,10,10,13,4,16,0.00,1,,127
2013-4-27,60,47,35,42,35,28,100,77,33,30.41,30.38,30.33,10,6,0,14,2,,0.00,1,Fog,164
2013-4-28,64,49,35,46,38,31,97,67,31,30.35,30.31,30.27,10,10,9,15,3,,0.00,1,,171
2013-4-29,64,52,41,47,36,20,100,66,21,30.29,30.27,30.24,10,8,0,14,2,,0.00,0,Fog,194
2013-4-30,64,49,34,41,32,23,97,58,22,30.36,30.31,30.26,10,10,8,15,3,20,0.00,0,,136